Weather History for Eagle, CO

Change the Weather History Date:

Sunday, January 6, 2013

  Actual Average Record
Temperature  
Mean Temperature 1 °F -  
Max Temperature 15 °F 33 °F 52 °F (1956)
Min Temperature -13 °F 4 °F -34 °F (1971)
Degree Days  
Heating Degree Days 64    
Moisture  
Dew Point -7 °F    
Average Humidity 79    
Maximum Humidity 92    
Minimum Humidity 58    
Precipitation  
Precipitation 0.00 in - - ()
Sea Level Pressure  
Sea Level Pressure 30.30 in    
Wind  
Wind Speed 2 mph (East)    
Max Wind Speed 8 mph    
Max Gust Speed -    
Visibility 10 miles    
Events      
Averages and records for this station are not official NWS values.
T = Trace of Precipitation, MM = Missing Value Source: NWS Daily Summary

Daily Weather History Graph

Daily Weather History Graph

Search for Another Location

Airport:

Trip Planner

Search our weather history database for the weather conditions in past years. The results will help you decide how hot, cold, wet, or windy it might be!

Date:

Astronomy

Jan. 06, 2013 Rise Set
Actual Time 7:28 AM MST 4:58 PM MST
Civil Twilight 6:58 AM MST 5:29 PM MST
Nautical Twilight 6:25 AM MST 6:02 PM MST
Astronomical Twilight 5:52 AM MST 6:35 PM MST
Moon 1:46 AM MST (1/6) 12:27 PM MST (1/6)
Length of Visible Light 10h 30m
Length of Day
9h 30m
Waning Crescent, 32% of the Moon is Illuminated
Jan 6
Waning Crescent
Jan 11
New
Jan 18
First Quarter
Jan 26
Full
Feb 3
Last Quarter

Hourly Weather History & Observations

Time (MST) Temp. Windchill Dew Point Humidity Pressure Visibility Wind Dir Wind Speed Gust Speed Precip Events Conditions
12:15 AM -5.8 °F -14.5 °F -7.6 °F 92% 30.41 in 10.0 mi East 3.5 mph - N/A   Clear
12:35 AM -5.8 °F -19.9 °F -9.4 °F 84% 30.41 in 10.0 mi East 6.9 mph - N/A   Clear
1:15 AM -5.8 °F -16.7 °F -9.4 °F 84% 30.41 in 10.0 mi East 4.6 mph - N/A   Clear
1:35 AM -5.8 °F -18.4 °F -9.4 °F 84% 30.41 in 10.0 mi East 5.8 mph - N/A   Clear
1:55 AM -7.6 °F - -9.4 °F 92% 30.41 in 10.0 mi Calm Calm - N/A   Clear
2:15 AM -7.6 °F - -11.2 °F 84% 30.42 in 10.0 mi Calm Calm - N/A   Clear
2:35 AM -7.6 °F - - N/A% 30.42 in 10.0 mi Calm Calm - N/A   Clear
2:55 AM -7.6 °F - -11.2 °F 84% 30.41 in 10.0 mi Calm Calm - N/A   Clear
3:15 AM -9.4 °F - -13.0 °F 84% 30.41 in 10.0 mi Calm Calm - N/A   Clear
3:35 AM -9.4 °F -18.6 °F -13.0 °F 84% 30.41 in 10.0 mi East 3.5 mph - N/A   Clear
3:55 AM -9.4 °F -22.7 °F -13.0 °F 84% 30.40 in 10.0 mi East 5.8 mph - N/A   Clear
4:15 AM -11.2 °F -27.8 °F -14.8 °F 84% 30.40 in 10.0 mi East 8.1 mph - N/A   Clear
4:35 AM -9.4 °F -20.9 °F -13.0 °F 84% 30.39 in 10.0 mi ESE 4.6 mph - N/A   Clear
4:55 AM -9.4 °F - -14.8 °F 77% 30.39 in 10.0 mi Calm Calm - N/A   Clear
5:35 AM -9.4 °F - -14.8 °F 77% 30.39 in 10.0 mi Calm Calm - N/A   Clear
5:55 AM -11.2 °F - -14.8 °F 84% 30.40 in 10.0 mi Calm Calm - N/A   Clear
6:15 AM -11.2 °F - -16.6 °F 77% 30.40 in 10.0 mi Calm Calm - N/A   Clear
6:35 AM -11.2 °F - -16.6 °F 77% 30.39 in 10.0 mi Calm Calm - N/A   Clear
6:50 AM -11.2 °F - -16.6 °F 77% 30.40 in 10.0 mi Calm Calm - N/A   Clear
7:05 AM -13.0 °F - -16.6 °F 84% 30.40 in 10.0 mi Calm Calm - N/A   Clear
7:50 AM -13.0 °F - -16.6 °F 84% 30.40 in 10.0 mi Calm Calm - N/A   Clear
8:50 AM -11.2 °F - -14.8 °F 84% 30.40 in 10.0 mi Calm Calm - N/A   Clear
9:50 AM -5.8 °F - -9.4 °F 84% 30.39 in 10.0 mi Calm Calm - N/A   Partly Cloudy
10:50 AM -2.2 °F - -7.6 °F 78% 30.35 in 10.0 mi Calm Calm - N/A   Mostly Cloudy
11:50 AM 3.2 °F - -2.2 °F 78% 30.29 in 10.0 mi Calm Calm - N/A   Mostly Cloudy
12:50 PM 8.6 °F - 1.4 °F 73% 30.23 in 10.0 mi Calm Calm - N/A   Mostly Cloudy
1:50 PM 12.2 °F - 3.2 °F 67% 30.19 in 10.0 mi Calm Calm - N/A   Mostly Cloudy
2:50 PM 15.8 °F - 3.2 °F 58% 30.15 in 10.0 mi Calm Calm - N/A   Mostly Cloudy
3:50 PM 14.0 °F - 3.2 °F 62% 30.15 in 10.0 mi Calm Calm - N/A   Mostly Cloudy
4:50 PM 14.0 °F - 3.2 °F 62% 30.14 in 10.0 mi Calm Calm - N/A   Mostly Cloudy
5:50 PM 12.2 °F - 5.0 °F 73% 30.13 in 10.0 mi Calm Calm - N/A   Mostly Cloudy
6:50 PM 12.2 °F - 5.0 °F 73% 30.13 in 10.0 mi Calm Calm - N/A   Mostly Cloudy
7:50 PM 10.4 °F - 3.2 °F 73% 30.13 in 10.0 mi Calm Calm - N/A   Mostly Cloudy
8:50 PM 8.6 °F - 3.2 °F 79% 30.12 in 10.0 mi Calm Calm - N/A   Partly Cloudy
9:50 PM 6.8 °F - 1.4 °F 79% 30.13 in 10.0 mi Calm Calm - N/A   Clear
10:50 PM 6.8 °F - 1.4 °F 79% 30.13 in 10.0 mi Calm Calm - N/A   Clear
10:55 PM 6.8 °F - 1.4 °F 79% 30.13 in 10.0 mi Calm Calm - N/A   Clear
11:15 PM 5.0 °F - 1.4 °F 85% 30.13 in 10.0 mi Calm Calm - N/A   Clear
11:35 PM 3.2 °F -4.2 °F -0.4 °F 85% 30.14 in 10.0 mi ESE 3.5 mph - N/A   Clear
11:55 PM 3.2 °F -9.1 °F -0.4 °F 85% 30.14 in 10.0 mi East 6.9 mph - N/A   Clear